This is the latest recevied weather packets stored in our database for station/object KB9MLJ. If no packets are shown the sender has not sent any weather packets the latest 1 day(s).
| Time | Temp. | Humidity | Pressure | Rain* | Wind** | Luminosity | Snow |
|---|---|---|---|---|---|---|---|
| 1777970213 | 13.33° C | 61% | 1005 hPa | 0 mm | 2.24 m/s, 282° | 0 W/m² | - |
| 1777969909 | 13.89° C | 62% | 1005 hPa | 0 mm | 1.34 m/s, 285° | 0 W/m² | - |
| 1777969605 | 13.89° C | 62% | 1005 hPa | 0 mm | 0.89 m/s, 266° | 0 W/m² | - |
| 1777969303 | 13.89° C | 62% | 1004.7 hPa | 0 mm | 1.79 m/s, 267° | 0 W/m² | - |
| 1777968998 | 13.89° C | 63% | 1004.7 hPa | 0 mm | 2.24 m/s, 279° | 0 W/m² | - |
| 1777968697 | 13.89° C | 63% | 1004.7 hPa | 0 mm | 2.24 m/s, 252° | 0 W/m² | - |
| 1777968393 | 13.89° C | 62% | 1004.3 hPa | 0 mm | 0.89 m/s, 255° | 0 W/m² | - |
| 1777968089 | 13.89° C | 61% | 1004.3 hPa | 0 mm | 1.34 m/s, 292° | 0 W/m² | - |
| 1777967785 | 13.89° C | 65% | 1004.3 hPa | 0 mm | 1.34 m/s, 283° | 0 W/m² | - |
| 1777967482 | 13.89° C | 66% | 1004.3 hPa | 0 mm | 1.34 m/s, 307° | 0 W/m² | - |
| 1777967179 | 13.89° C | 65% | 1004.3 hPa | 0 mm | 1.34 m/s, 281° | 0 W/m² | - |
| 1777966876 | 13.89° C | 65% | 1004.3 hPa | 0 mm | 0.89 m/s, 273° | 0 W/m² | - |
| 1777966574 | 13.89° C | 65% | 1004 hPa | 0 mm | 0.89 m/s, 267° | 0 W/m² | - |
| 1777966272 | 13.89° C | 65% | 1004.3 hPa | 0 mm | 1.34 m/s, 266° | 0 W/m² | - |
| 1777965967 | 13.89° C | 65% | 1004 hPa | 0 mm | 1.79 m/s, 249° | 0 W/m² | - |
| 1777965664 | 13.89° C | 65% | 1003.7 hPa | 0 mm | 0.89 m/s, 269° | 0 W/m² | - |
| 1777965359 | 13.89° C | 66% | 1003.7 hPa | 0 mm | 0.45 m/s, 266° | 0 W/m² | - |
| 1777965057 | 13.89° C | 66% | 1003.3 hPa | 0 mm | 1.79 m/s, 271° | 0 W/m² | - |
| 1777964754 | 13.89° C | 68% | 1003.3 hPa | 0 mm | 1.79 m/s, 255° | 0 W/m² | - |
| 1777964450 | 13.89° C | 69% | 1003.7 hPa | 0 mm | 1.34 m/s, 267° | 0 W/m² | - |
| 1777964146 | 13.89° C | 70% | 1003.7 hPa | 0 mm | 0.89 m/s, 321° | 0 W/m² | - |
| 1777963843 | 14.44° C | 70% | 1003.3 hPa | 0 mm | 1.34 m/s, 276° | 0 W/m² | - |
| 1777963540 | 14.44° C | 70% | 1003 hPa | 0 mm | 0.89 m/s, 282° | 0 W/m² | - |
| 1777963238 | 15° C | 69% | 1003 hPa | 0 mm | 0.89 m/s, 261° | 0 W/m² | - |
| 1777962935 | 14.44° C | 69% | 1003 hPa | 0 mm | 1.79 m/s, 289° | 0 W/m² | - |
* Rain latest hour (hover to see other rain measurements)
** Current wind speed in m/s (hover to see current wind gust speed)